Back to catalog

COSMOS 2015

AliveNavigationLEO
NORAD 19909·PAYLOAD·🇷🇺 Russia

Launched Mar 24, 1989 from Plesetsk Cosmodrome

Loading…

Next Passes (next 24 hours)

TLE

FreshSource: Space-Track

Epoch: Sep 14, 2026, 15:43 UTC

1 19909U 89025H   26257.65499840 -.00000019  00000-0 -25957-4 0  9993
2 19909  74.0126  27.0371 0024977  94.5127 277.6147 12.44067752701917

Track COSMOS 2015 in real time with AllMySat

Download on the App Store